#timestamp,LO_Frequency,Hit,StdDev 
1629230415.7,286047001.7,N
1629230435.5,286047004.3,Y
1629230455.4,286047001.4,P
1629230475.2,286047001.5,P
1629230495.1,286047002.0,P
1629230496.0,286047002.0,Y
1629230515.8,286047001.0,P
1629230535.6,286047001.0,N
1629230555.5,286046998.2,P
1629230575.3,286047000.7,N
1629230595.1,286047000.6,N
1629230615.9,286046998.5,N
1629230635.7,286046998.7,N
1629230655.6,286046998.7,N
1629230675.4,286046998.4,N
1629230695.2,286046998.8,N
1629230715.1,286046998.4,N
1629230716.0,286046998.4,N
1629230735.8,286047001.1,N
1629230755.6,286047000.0,N
1629230775.5,286047000.3,N
1629230795.3,286046999.9,N
1629230815.2,286046999.9,N
1629230835.9,286047000.0,N
1629230855.7,286047000.3,N
1629230875.6,286047001.2,N
1629230895.4,286047001.2,N
1629230915.2,286047001.1,N
1629230935.1,286047000.5,N
1629230936.0,286047000.5,N
1629230955.8,286047001.1,N
1629230975.7,286047000.6,N
1629230995.5,286047000.2,N
1629231015.3,286047000.1,N
1629231035.2,286047000.8,N
1629231055.0,286047000.1,N
1629231055.9,286047000.1,N
1629231075.7,286047002.4,N
1629231095.6,286047002.2,N
1629231115.4,286046999.7,N
1629231135.3,286047000.2,N
1629231155.1,286047002.3,N
1629231156.0,286047002.3,N
1629231175.8,286047001.3,N
1629231195.7,286047001.9,N
1629231215.5,286047002.0,N
1629231235.4,286047001.3,N
1629231255.2,286047003.9,Y
1629231275.0,286047001.7,P
1629231275.9,286047001.7,P
1629231295.8,286047003.9,P
1629231315.6,286047001.9,N
1629231335.5,286047002.2,N
1629231355.3,286047001.9,N
1629231375.1,286047001.8,N
1629231395.9,286047004.4,Y
1629231415.7,286047000.3,P
1629231435.5,286047000.3,N
1629231455.4,286047002.4,N
1629231475.2,286046999.9,N
1629231495.1,286046999.9,N
1629231496.0,286046999.9,N
1629231515.8,286047000.7,N
1629231535.6,286047001.0,N
1629231555.5,286047000.7,N
1629231575.3,286047000.5,N
1629231595.1,286047000.2,N
1629231615.9,286047000.1,N
1629231635.7,286047002.7,Y
1629231655.6,286046999.8,P
1629231675.4,286047000.9,N
1629231695.2,286047000.9,N
1629231715.1,286047000.3,N
1629231716.0,286047000.3,N
1629231735.8,286047000.2,N
1629231755.6,286047000.1,N
1629231775.5,286047002.4,Y
1629231795.3,286046999.8,P
1629231815.2,286047002.7,P
1629231835.9,286046999.9,N
1629231855.7,286047000.0,N
1629231875.6,286047002.8,N
1629231895.4,286047002.6,N
1629231915.2,286046999.7,N
1629231935.1,286047000.1,N
1629231936.0,286047000.1,N
1629231955.8,286047000.5,N
1629231975.7,286047000.0,N
1629231995.5,286047002.4,N
1629232015.3,286047002.8,N
1629232035.2,286047002.3,N
1629232055.0,286047002.3,N
1629232055.9,286047002.3,N
1629232075.7,286046999.7,N
1629232095.6,286047002.2,N
1629232115.4,286047002.6,N
1629232135.3,286047000.2,N
1629232155.1,286046999.7,N
1629232156.0,286046999.7,N
1629232175.8,286046999.8,N
1629232195.7,286046999.7,N
1629232215.5,286046999.9,N
1629232235.3,286046999.8,N
1629232255.2,286047000.7,N
1629232275.0,286047000.3,N
1629232275.9,286047000.3,N
1629232295.8,286046998.8,N
1629232315.6,286046998.7,N
1629232335.4,286046998.8,N
1629232355.3,286046998.7,N
1629232375.1,286046996.5,N
1629232395.8,286046999.5,N
1629232415.7,286046997.7,N
1629232435.5,286046998.0,N
1629232455.4,286046998.0,N
1629232475.2,286046998.0,N
1629232495.0,286046995.8,N
1629232495.9,286046995.8,N
1629232515.8,286046996.1,N
1629232535.6,286046996.4,N
1629232555.5,286046993.3,Y
1629232575.3,286046993.5,P
1629232595.1,286046993.3,N
1629232615.9,286046993.9,N
1629232635.7,286046994.8,N
1629232655.6,286046992.1,Y
1629232675.4,286046999.3,P
1629232695.2,286046999.2,N
1629232715.1,286046996.7,N
1629232716.0,286046996.7,N
1629232735.8,286046996.5,N
1629232755.6,286046996.7,N
1629232775.5,286046997.2,N
1629232795.3,286046997.8,N
1629232815.2,286046997.9,N
1629232835.9,286046997.9,N
1629232855.7,286046997.5,N
1629232875.6,286046997.5,N
1629232895.4,286046997.6,N
1629232915.2,286046995.3,Y
1629232935.1,286046999.3,P
1629232936.0,286046999.3,N
1629232955.8,286046998.7,N
1629232975.7,286046999.4,N
1629232995.5,286046998.7,N
1629233015.3,286046996.9,Y
1629233035.2,286046998.8,P
1629233055.0,286046998.9,P
1629233055.9,286046998.9,P
1629233075.7,286046999.0,Y
1629233095.6,286046998.6,P
1629233115.4,286047001.2,P
1629233135.3,286047001.2,N
1629233155.1,286046998.2,N
1629233156.0,286046998.2,N
1629233175.8,286046998.6,N
1629233195.7,286046998.5,N
1629233215.5,286047001.0,N
1629233235.4,286046998.3,N
1629233255.2,286046998.2,N
1629233275.0,286046998.2,N
1629233275.9,286046998.2,N
1629233295.8,286047000.9,N
1629233315.6,286047001.2,N
1629233335.5,286046998.2,N
1629233355.3,286047000.2,N
1629233375.1,286047000.5,N
1629233395.9,286047000.0,N
1629233415.7,286047000.9,N
1629233435.5,286047002.7,N
1629233455.4,286047002.5,N
1629233475.2,286047000.1,N
1629233495.1,286047000.2,N
1629233496.0,286047000.2,N
1629233515.8,286047002.8,N
1629233535.6,286047002.0,N
1629233555.5,286047004.4,N
1629233575.3,286047004.0,N
1629233595.2,286047003.9,N
1629233615.9,286047004.3,N
1629233635.7,286047003.7,N
1629233655.6,286047003.5,N
1629233675.4,286047003.7,N
1629233695.2,286047004.3,N
1629233715.1,286047004.1,N
1629233716.0,286047004.1,N
1629233735.8,286047004.2,N
1629233755.6,286047003.2,N
1629233775.5,286047003.4,N
1629233795.3,286047005.1,N
1629233815.2,286047005.5,N
1629233835.9,286047005.6,N
1629233855.7,286047005.1,N
1629233875.6,286047005.1,N
1629233895.4,286047005.4,N
1629233915.2,286047005.6,Y
1629233935.1,286047002.3,P
1629233936.0,286047002.3,P
1629233955.8,286047002.3,P
1629233975.7,286047002.3,Y
1629233995.5,286046998.3,P
